Regional Weather Roundup
Issued by NWS Nashville, TN

Home | Current Version | Previous Version | Text Only | Print | Product List | Glossary On
Versions: 1 2 3 4 5 6 7 8 9 10 11 12 13 14 15 16 17 18 19 20 21 22 23 24 25 26 27 28 29 30 31 32 33 34 35 36 37 38 39 40 41 42 43 44 45 46 47 48 49 50
000
ASUS44 KOHX 232015
RWROHX
MIDDLE TENNESSEE HOURLY WEATHER ROUNDUP
NATIONAL WEATHER SERVICE NASHVILLE TN
300 PM CDT WED APR 23 2014

NOTE: "FAIR" INDICATES FEW OR NO CLOUDS BELOW 12,000 FEET WITH
NO SIGNIFICANT WEATHER AND/OR OBSTRUCTIONS TO VISIBILITY.

* THESE REPORTS ARE NOT UNDER NWS QUALITY CONTROL AND MAY NOT
  REPORT WEATHER SUCH AS PRECIPITATION AND FOG.


TNZ005>011-023>034-057-059-062>066-078-080-232100
...NORTHERN MIDDLE TENNESSEE...

CITY           SKY/WX    TMP DP  RH WIND       PRES   REMARKS
BAXTER*          N/A     72  39  30 S3          N/A
BRENTWOOD*       N/A     72  39  30 NE1         N/A
CASTALIAN SPRG   N/A     68  34  28 E2          N/A
CLARKSVILLE    SUNNY     67  39  35 N7        30.03F
COLUMBIA       SUNNY     70  48  46 E7        29.99F
CROSSVILLE     SUNNY     65  25  22 NE9       30.00F
GALLATIN         N/A     67  34  29 N6        30.04F
DICKSON        SUNNY     66  34  30 VRB7      30.02F
FAIRFIELD GLAD   N/A     64  34  32 NW3         N/A
GOODLETTSVILLE   N/A     68  41  37 CALM        N/A
JOELTON*         N/A     66  39  37 S5          N/A
LAFAYETTE*       N/A     66  36  32 NE5         N/A
LIVINGSTON     SUNNY     63  30  28 NE7       30.02F
MONTEREY         N/A     68  32  26 CALM        N/A
MOUNT JULIET*    N/A     68  37  32 CALM        N/A
NASHVILLE      SUNNY     69  35  28 NW6       30.02F
OLD HICKORY*     N/A     68  41  37 N1          N/A
PEGRAM*          N/A    N/A N/A N/A N2          N/A
PORTLAND       SUNNY     64  34  32 NE9       30.03F
SMYRNA         SUNNY     69  33  26 N7        30.02F
SPARTA         SUNNY     66  34  30 NE6       30.00F
SPRINGFIELD*     N/A     68  45  42 MISG        N/A
WHITE BLUFF*     N/A     73  37  27 N2          N/A
$$
TNZ056-058-060-061-075>077-079-093>097-232100
...SOUTHERN MIDDLE TENNESSEE...

CITY           SKY/WX    TMP DP  RH WIND       PRES   REMARKS
BELLEVUE*        N/A     70  41  35 CALM        N/A
CULLEOKA*        N/A     70  32  24 W3          N/A
EAGLEVILLE*      N/A    N/A N/A N/A N1          N/A
FAIRVIEW*        N/A     75  37  25 E1          N/A
FAYETTEVILLE   SUNNY     68  35  29 N6        29.99F
HOHENWALD*       N/A     73  36  25 SW3         N/A
LEWISBURG      SUNNY     68  39  34 NE7       30.00F
MANCHESTER*      N/A     68  43  40 NE3G15      N/A
MCMINNVILLE      N/A     66  37  34 CALM      30.00F
MOUNT PLEASANT   N/A     68  45  42 CALM        N/A
MURFREESBORO   SUNNY     68  31  25 N8        30.01F
SHELBYVILLE    SUNNY     68  41  37 N12       30.01F
SPRING HILL*     N/A     66  36  32 NE3         N/A
TULLAHOMA      SUNNY     70  34  26 NE9       30.00F
WINCHESTER     SUNNY     68  36  30 N12       29.99F
$$


...KEY TO REMARKS...
VSB - VISIBILITY IN MILES
WCI - WIND CHILL INDEX
HX  - HEAT INDEX




USA.gov is the U.S. government's official web portal to all federal, state and local government web resources and services.